Visibility
15.0 15.0 15.0 15.0 15.0 15.0 15.0 15.0 15.0 15.0 15.0 15.0 15.0 15.0 15.0 15.0 15.0 15.0 15.0 15.0 15.0 15.0 15.0 15.0 15.0 15.0 15.0 15.0 15.0 15.0 15.0 15.0 0.3 10.8 15.0 15.0 15.0 13.6 13.1 4.3 3.0 1.4 7.9
15.0 15.0 15.0 15.0 15.0 15.0 15.0 15.0 15.0 15.0 15.0 15.0 15.0 15.0 15.0 15.0 15.0 15.0 15.0 15.0 15.0 15.0 15.0 15.0 15.0 15.0 15.0 15.0 15.0 15.0 15.0 15.0 0.1 0.1 15.0 15.0 15.0 9.6 5.9 2.9 5.0 1.4 2.0
15.0 15.0 15.0 15.0 15.0 15.0 15.0 15.0 15.0 15.0 15.0 15.0 15.0 15.0 15.0 15.0 15.0 15.0 15.0 15.0 15.0 15.0 15.0 15.0 15.0 15.0 15.0 15.0 15.0 15.0 15.0 15.0 15.0 0.1 0.3 15.0 15.0 14.1 4.8 12.7 13.1 2.6 2.1
15.0 15.0 15.0 15.0 15.0 15.0 15.0 15.0 15.0 15.0 15.0 15.0 15.0 15.0 15.0 15.0 15.0 15.0 15.0 15.0 15.0 15.0 15.0 15.0 15.0 15.0 15.0 15.0 15.0 15.0 15.0 8.7 15.0 15.0 15.0 15.0 4.1 13.2 0.4 3.0 0.3 1.4 1.5
15.0 15.0 15.0 15.0 15.0 15.0 15.0 15.0 15.0 15.0 15.0 15.0 15.0 15.0 15.0 15.0 15.0 15.0 15.0 15.0 15.0 15.0 15.0 15.0 15.0 15.0 15.0 15.0 15.0 15.0 15.0 14.0 0.1 0.6 0.1 4.5 2.6 0.0 0.1 0.1 0.1 6.0 3.4
15.0 15.0 15.0 15.0 15.0 15.0 15.0 15.0 15.0 15.0 15.0 15.0 15.0 15.0 15.0 15.0 15.0 15.0 15.0 15.0 15.0 15.0 15.0 15.0 15.0 15.0 15.0 15.0 15.0 15.0 15.0 6.5 0.1 0.0 0.0 0.1 1.8 0.1 0.1 0.1 0.1 0.1 0.1
15.0 15.0 15.0 15.0 15.0 15.0 15.0 15.0 15.0 15.0 15.0 15.0 15.0 15.0 15.0 15.0 15.0 15.0 15.0 15.0 15.0 15.0 15.0 15.0 15.0 15.0 15.0 15.0 15.0 15.0 15.0 15.0 13.1 1.5 0.1 0.1 0.1 7.1 0.3 0.1 0.2 4.8 0.1
15.0 15.0 15.0 15.0 15.0 15.0 15.0 15.0 15.0 15.0 15.0 15.0 15.0 15.0 15.0 15.0 15.0 15.0 15.0 15.0 15.0 15.0 15.0 15.0 15.0 15.0 15.0 15.0 15.0 15.0 15.0 15.0 15.0 15.0 14.2 8.5 2.4 1.1 0.2 0.2 4.2 0.1 0.2
15.0 15.0 15.0 15.0 15.0 15.0 15.0 15.0 15.0 15.0 15.0 15.0 15.0 15.0 15.0 15.0 15.0 15.0 15.0 15.0 15.0 15.0 15.0 15.0 15.0 15.0 15.0 15.0 15.0 15.0 15.0 15.0 15.0 15.0 15.0 15.0 15.0 14.5 0.1 2.9 0.1 0.0 0.1
10.6 0.4 13.7 14.5 15.0 15.0 15.0 15.0 15.0 15.0 15.0 15.0 15.0 15.0 15.0 15.0 15.0 15.0 15.0 15.0 15.0 15.0 15.0 15.0 15.0 15.0 15.0 15.0 15.0 15.0 10.6 15.0 15.0 15.0 15.0 15.0 13.7 12.9 0.1 1.8 1.7 4.1 0.1
15.0 15.0 15.0 15.0 15.0 15.0 15.0 15.0 15.0 15.0 15.0 15.0 15.0 15.0 15.0 15.0 15.0 15.0 15.0 15.0 15.0 15.0 15.0 15.0 15.0 15.0 15.0 15.0 15.0 15.0 15.0 15.0 15.0 15.0 15.0 15.0 15.0 0.1 0.1 0.1 3.8 5.1 0.1
15.0 15.0 15.0 15.0 15.0 15.0 15.0 15.0 15.0 15.0 4.4 3.1 15.0 15.0 15.0 15.0 15.0 15.0 15.0 15.0 15.0 13.6 15.0 15.0 15.0 15.0 15.0 15.0 15.0 15.0 15.0 15.0 15.0 15.0 0.1 0.1 6.2 0.1 0.0 0.1 0.7 0.2 0.1
15.0 15.0 15.0 15.0 15.0 15.0 15.0 15.0 0.2 0.1 0.1 0.1 14.2 15.0 15.0 15.0 15.0 15.0 15.0 15.0 15.0 5.6 15.0 15.0 15.0 15.0 15.0 15.0 15.0 15.0 15.0 15.0 15.0 15.0 15.0 0.3 1.7 0.1 0.0 0.0 0.0 0.0 0.0
15.0 15.0 15.0 15.0 15.0 15.0 14.4 13.8 0.0 0.0 0.1 0.1 0.7 15.0 15.0 15.0 15.0 15.0 15.0 15.0 14.3 12.9 15.0 15.0 15.0 15.0 15.0 15.0 15.0 15.0 15.0 15.0 15.0 5.7 6.6 15.0 5.2 0.0 0.0 0.0 0.1 0.1 0.1
15.0 15.0 15.0 15.0 15.0 15.0 9.5 1.7 0.0 0.0 0.1 0.1 0.2 7.1 15.0 15.0 15.0 15.0 15.0 15.0 15.0 15.0 15.0 2.2 15.0 15.0 15.0 15.0 15.0 15.0 15.0 15.0 15.0 15.0 15.0 7.3 0.1 0.0 0.0 0.0 0.1 0.1 1.3
15.0 15.0 15.0 14.8 15.0 13.2 7.5 1.1 2.3 0.0 0.1 0.1 0.0 0.8 13.1 15.0 15.0 15.0 15.0 15.0 15.0 15.0 1.2 0.1 9.8 10.4 10.5 15.0 15.0 15.0 15.0 13.1 15.0 15.0 8.2 12.8 5.4 0.0 0.0 0.0 0.1 0.2 8.7
15.0 15.0 15.0 15.0 15.0 15.0 7.4 0.6 0.1 5.9 0.0 0.0 0.0 0.0 0.0 1.2 15.0 15.0 15.0 15.0 15.0 15.0 2.5 4.2 1.9 6.7 8.4 15.0 15.0 3.6 2.4 15.0 15.0 15.0 15.0 15.0 15.0 0.0 0.0 0.0 0.0 0.1 0.1
15.0 2.6 1.9 13.4 15.0 15.0 15.0 10.6 0.1 0.2 0.1 0.1 0.2 0.0 0.0 0.0 0.0 0.2 15.0 15.0 15.0 15.0 15.0 6.2 0.8 0.6 3.3 4.6 15.0 13.8 13.7 14.3 15.0 15.0 15.0 11.4 6.4 0.2 0.0 0.0 0.0 0.0 0.1
14.7 1.7 13.5 15.0 15.0 15.0 15.0 15.0 8.0 0.4 0.4 0.2 0.2 0.1 0.1 0.1 0.1 0.3 15.0 15.0 15.0 15.0 15.0 15.0 15.0 15.0 12.8 6.7 0.5 1.9 6.2 7.7 5.7 15.0 15.0 13.4 3.3 0.1 0.0 0.0 0.0 0.0 0.0
15.0 12.3 13.0 7.1 9.7 15.0 15.0 12.8 7.6 14.5 12.0 8.0 0.1 0.1 0.1 0.1 0.2 0.2 0.2 0.7 6.1 15.0 15.0 15.0 15.0 15.0 15.0 5.4 2.3 1.1 1.3 5.7 11.5 15.0 15.0 15.0 12.7 0.3 0.1 0.0 0.0 0.0 0.0
15.0 15.0 15.0 13.2 8.1 5.3 5.2 5.4 3.4 0.8 8.2 11.4 13.8 3.1 0.5 0.1 0.5 15.0 15.0 14.3 14.5 15.0 15.0 15.0 14.6 15.0 15.0 5.4 15.0 15.0 1.4 3.4 3.9 8.0 10.3 13.7 15.0 1.9 5.1 0.0 0.0 0.0 0.0
15.0 14.7 7.6 4.8 5.0 2.7 3.4 9.4 2.8 0.6 0.7 2.1 15.0 15.0 15.0 15.0 15.0 15.0 15.0 15.0 15.0 15.0 15.0 11.4 8.0 14.3 15.0 15.0 15.0 15.0 2.9 3.1 4.6 2.3 10.1 14.9 15.0 13.8 0.1 0.0 0.0 0.0 0.0
4.5 1.7 3.4 6.2 6.8 6.9 0.3 0.6 0.3 0.4 0.4 0.6 0.8 1.4 8.9 9.3 11.4 11.0 15.0 15.0 15.0 15.0 12.7 11.7 5.7 8.9 15.0 15.0 15.0 15.0 3.6 3.6 1.3 0.5 0.3 3.8 12.5 11.0 0.2 0.1 0.0 0.0 0.1
1.7 1.5 1.0 0.9 2.0 5.5 6.2 3.9 15.0 14.0 0.6 0.3 1.3 2.9 2.0 4.2 2.5 6.1 7.3 6.7 12.2 15.0 6.0 5.6 5.2 14.1 15.0 15.0 15.0 15.0 15.0 8.3 0.8 0.4 0.2 0.3 1.8 2.5 0.2 0.1 0.1 0.1 0.1
0.9 0.9 0.9 1.0 0.8 0.6 0.4 1.4 1.1 0.4 0.7 15.0 2.5 1.5 8.2 0.9 0.3 3.9 4.6 8.5 4.1 4.1 15.0 15.0 4.5 5.1 15.0 15.0 15.0 15.0 8.6 8.1 15.0 7.0 0.2 0.3 0.3 0.1 0.1 0.1 0.2 0.1 0.1
1.5 1.6 1.6 0.9 0.6 1.0 0.7 0.4 0.7 0.2 1.6 1.9 0.7 0.5 0.5 1.7 5.1 3.8 14.8 10.6 7.7 15.0 15.0 8.1 5.3 4.7 15.0 15.0 15.0 15.0 15.0 15.0 15.0 15.0 0.2 0.3 0.3 0.1 0.2 0.1 0.1 0.1 0.1